15min,AgWx,beryljct,423,21SEP2018:00:00:00,51.0,12.97,53.4,52.3,53.0,55.2,51.2,31,35,25,0.454,22.8,25.1,19.9,4.845,4.0,308,3.0,4.9,0.00022,0.00033,65.1,67.3,16,0,0,49.6,5.84,0.00,0.00
15min,AgWx,beryljct,423,21SEP2018:00:15:00,50.9,12.95,53.7,51.5,53.6,56.2,51.4,29,37,23,0.428,21.9,26.0,18.5,2.543,3.5,330,11,5.6,0.00018,0.00029,64.8,66.8,16,0,0,50.2,5.84,0.00,0.00
15min,AgWx,beryljct,423,21SEP2018:00:30:00,50.4,12.94,50.4,48.5,50.5,52.6,48.5,34,39,27,0.446,23.2,25.0,19.4,2.543,2.8,326,5.2,3.7,0.00007,0.00014,64.6,67.2,16,0,0,47.0,5.84,0.00,0.00
15min,AgWx,beryljct,423,21SEP2018:00:45:00,49.3,12.92,48.2,47.5,48.0,48.6,47.4,39,42,36,0.419,24.1,26.1,22.7,2.609,3.4,319,3.3,4.5,0.00010,0.00017,64.4,66.7,16,0,0,45.0,5.84,0.00,0.00
15min,AgWx,beryljct,423,21SEP2018:01:00:00,48.2,12.93,46.8,47.2,46.5,47.4,45.7,41,43,37,0.441,23.8,24.6,22.2,2.938,3.1,318,2.9,3.7,0.00007,0.00012,64.2,66.6,16,0,0,43.5,5.84,0.00,0.00
15min,AgWx,beryljct,423,21SEP2018:01:15:00,47.2,12.91,46.5,43.1,46.7,50.1,43.1,44,56,31,0.524,25.2,29.1,20.4,0.285,1.7,317,0.2,3.3,-0.00009,-0.00009,63.9,66.5,16,0,0,43.8,5.84,0.00,0.00
15min,AgWx,beryljct,423,21SEP2018:01:30:00,45.9,12.89,42.9,42.4,42.7,43.7,41.7,49,57,42,0.478,24.6,28.5,20.9,2.981,0.7,323,0.0,3.0,-0.00023,-0.00032,63.7,66.8,16,0,0,38.9,5.84,0.00,0.00
15min,AgWx,beryljct,423,21SEP2018:01:45:00,44.8,12.9,40.6,38.5,40.8,44.0,38.5,52,57,43,0.454,24.2,26.0,22.9,2.302,3.7,147,14,5.5,0.00005,0.00009,63.5,66.7,16,0,0,38.6,5.85,0.00,0.00
15min,AgWx,beryljct,423,21SEP2018:02:00:00,43.3,12.89,38.1,38.9,37.7,39.3,36.5,56,66,43,0.389,23.4,26.4,18.5,3.223,3.4,184,10,4.2,0.00001,0.00004,63.2,66.6,16,0,0,36.3,5.85,0.00,0.00
15min,AgWx,beryljct,423,21SEP2018:02:15:00,42.4,12.87,42.3,40.5,41.7,42.9,39.0,41,48,37,0.400,19.5,21.8,18.5,1.556,2.8,179,4.6,3.9,0.00003,0.00007,63.0,65.8,16,0,0,38.8,5.85,0.00,0.00
15min,AgWx,beryljct,423,21SEP2018:02:30:00,41.8,12.86,40.9,38.9,40.7,42.8,38.9,41,50,34,0.367,18.9,22.3,15.2,1.754,2.5,175,0.2,3.7,0.00000,0.00003,62.8,65.6,16,0,0,38.4,5.85,0.00,0.00
15min,AgWx,beryljct,423,21SEP2018:02:45:00,41.3,12.85,40.9,39.3,40.5,42.2,38.5,40,49,35,0.401,17.7,21.8,15.3,0,1.7,175,0.1,2.4,-0.00007,-0.00007,62.5,65.9,16,0,0,37.4,5.85,0.00,0.00
15min,AgWx,beryljct,423,21SEP2018:03:00:00,40.7,12.86,39.0,39.0,38.7,39.6,37.2,54,63,47,0.435,23.4,25.7,20.7,0,0.1,192,0.0,0.9,-0.00028,-0.00043,62.3,65.5,16,0,0,36.7,5.85,0.00,0.00
15min,AgWx,beryljct,423,21SEP2018:03:15:00,40.0,12.85,38.0,37.2,37.7,38.7,37.0,60,66,55,0.437,25.1,27.0,23.8,2.039,1.0,192,0.1,2.4,-0.00018,-0.00024,62.0,65.7,16,0,0,35.5,5.85,0.00,0.00
15min,AgWx,beryljct,423,21SEP2018:03:30:00,39.3,12.83,36.6,36.3,36.3,37.9,35.7,63,68,53,0.459,25.1,26.0,22.4,2.696,1.6,192,0.1,2.7,-0.00012,-0.00015,61.8,66.0,16,0,0,35.6,5.85,0.00,0.00
15min,AgWx,beryljct,423,21SEP2018:03:45:00,38.8,12.83,38.1,35.3,37.8,40.9,35.2,51,64,39,0.419,21.1,25.2,17.6,0.636,1.6,148,40,4.2,-0.00010,-0.00012,61.6,65.9,16,0,0,36.2,5.85,0.00,0.00
15min,AgWx,beryljct,423,21SEP2018:04:00:00,38.1,12.81,34.3,34.5,34.0,35.5,33.0,66,72,58,0.471,23.8,26.1,21.9,2.148,1.0,113,0.8,2.3,-0.00017,-0.00023,61.4,65.8,16,0,0,35.5,5.85,0.00,0.00
15min,AgWx,beryljct,423,21SEP2018:04:15:00,37.5,12.79,36.5,35.7,35.9,37.4,34.5,61,69,52,0.433,23.7,25.5,21.4,0.548,1.2,110,0.0,2.8,-0.00014,-0.00019,61.1,65.3,16,0,0,35.7,5.85,0.00,0.00
15min,AgWx,beryljct,423,21SEP2018:04:30:00,36.9,12.8,36.1,35.8,35.6,36.5,34.5,62,65,57,0.446,23.7,24.7,22.4,0.46,0.2,110,0.0,0.8,-0.00025,-0.00038,60.9,65.2,16,0,0,35.5,5.85,0.00,0.00
15min,AgWx,beryljct,423,21SEP2018:04:45:00,36.5,12.79,35.6,35.5,35.1,35.7,34.6,68,71,63,0.472,25.7,26.5,24.3,0,0.3,110,0.0,0.9,-0.00023,-0.00035,60.7,65.1,16,0,0,35.7,5.85,0.00,0.00
15min,AgWx,beryljct,423,21SEP2018:05:00:00,36.1,12.8,36.3,34.2,36.0,36.8,34.2,62,72,56,0.482,24.2,26.8,22.5,2.543,0.8,110,0.0,2.5,-0.00018,-0.00026,60.5,65.3,16,0,0,35.8,5.85,0.00,0.00
15min,AgWx,beryljct,423,21SEP2018:05:15:00,35.7,12.79,32.8,32.3,32.6,34.2,31.7,71,80,64,0.490,24.3,26.8,21.5,0.285,0.8,111,0.3,2.5,-0.00018,-0.00025,60.2,64.8,16,0,0,35.3,5.85,0.00,0.00
15min,AgWx,beryljct,423,21SEP2018:05:30:00,35.2,12.78,34.3,34.9,33.5,34.9,32.2,67,79,60,0.438,23.7,26.6,21.5,0,0.4,111,0.0,1.3,-0.00022,-0.00032,60.0,64.0,16,0,0,35.9,5.86,0.00,0.00
15min,AgWx,beryljct,423,21SEP2018:05:45:00,34.8,12.78,35.9,36.9,35.2,36.9,34.0,60,69,47,0.348,22.7,25.1,18.5,0,0.5,111,0.0,1.4,0.00005,0.00008,59.8,65.0,16,0,0,35.7,5.86,0.00,0.00
15min,AgWx,beryljct,423,21SEP2018:06:00:00,34.7,12.79,36.8,34.3,36.6,37.3,34.3,49,64,45,0.428,19.3,23.5,17.8,0,0.0,111,0.0,0.5,0.00001,0.00001,59.6,64.9,16,0,0,35.8,5.86,0.00,0.00
15min,AgWx,beryljct,423,21SEP2018:06:15:00,34.6,12.77,33.6,33.6,33.3,34.4,32.5,62,66,52,0.339,21.7,23.6,17.9,0.526,0.2,119,1.7,1.2,0.00003,0.00004,59.4,64.4,16,1,0,35.5,5.86,0.00,0.00
15min,AgWx,beryljct,423,21SEP2018:06:30:00,34.3,12.78,33.1,31.3,32.9,34.0,31.3,59,72,50,0.404,20.0,23.7,17.0,0,0.7,120,0.0,1.4,0.00009,0.00013,59.1,64.6,16,6,0,35.5,5.86,0.00,0.00
15min,AgWx,beryljct,423,21SEP2018:06:45:00,34.1,12.81,32.3,31.8,31.9,32.8,31.2,62,69,50,0.373,20.3,22.6,16.0,0.745,1.7,189,3.0,3.9,0.00027,0.00037,58.9,64.5,16,39,0,37.3,5.86,0.00,0.00
15min,AgWx,beryljct,423,21SEP2018:07:00:00,34.2,12.82,32.0,32.3,31.6,32.5,30.9,69,73,59,0.431,22.6,23.5,19.1,1.491,1.5,148,18,3.6,0.00038,0.00046,58.7,64.4,16,81,0,42.5,5.86,0.00,0.00
15min,AgWx,beryljct,423,21SEP2018:07:15:00,35.3,12.89,34.3,34.5,33.7,34.5,32.4,66,72,61,0.413,23.6,25.0,22.4,3.201,3.0,136,1.6,4.1,0.00058,0.00073,58.5,64.3,16,124,0,47.6,5.86,0.00,0.00
15min,AgWx,beryljct,423,21SEP2018:07:30:00,37.1,13.05,37.5,39.5,36.7,39.5,34.5,56,64,47,0.388,22.4,24.5,21.1,3.288,3.1,138,3.5,3.7,0.00083,0.00105,58.3,64.1,16,169,0,52.8,5.85,0.00,0.00
15min,AgWx,beryljct,423,21SEP2018:07:45:00,39.9,13.29,42.1,43.0,41.4,43.0,39.6,49,52,46,0.438,23.7,25.9,20.9,3.529,3.4,141,1.0,3.9,0.00115,0.00145,58.1,64.0,16,218,0,59.2,5.85,0.00,0.00
15min,AgWx,beryljct,423,21SEP2018:08:00:00,43.3,13.71,45.9,47.5,45.2,47.5,43.0,45,48,39,0.460,25.2,27.4,22.9,2.587,2.5,139,0.1,3.5,0.00140,0.00170,58.0,63.9,16,267,0,65.9,5.85,0.00,0.00
15min,AgWx,beryljct,423,21SEP2018:08:15:00,47.1,14.49,50.0,50.8,49.5,50.9,47.6,39,44,34,0.540,25.6,29.7,22.4,2.455,2.3,135,3.6,3.0,0.00175,0.00210,57.9,63.8,16,318,0,72.3,5.84,0.00,0.00
15min,AgWx,beryljct,423,21SEP2018:08:30:00,50.8,14.45,52.5,53.2,52.2,53.2,50.9,36,42,31,0.486,26.1,29.1,22.2,2.784,3.0,130,4.5,4.5,0.00214,0.00260,57.8,63.7,16,369,0,75.6,5.84,0.00,0.00
15min,AgWx,beryljct,423,21SEP2018:08:45:00,54.0,14.42,54.1,54.5,53.9,54.5,53.3,34,38,30,0.481,25.9,28.8,23.1,1.644,2.6,123,7.8,4.3,0.00243,0.00288,57.7,63.5,16,418,0,78.4,5.84,0.00,0.00
15min,AgWx,beryljct,423,21SEP2018:09:00:00,56.9,14.33,55.7,56.2,55.5,56.2,54.5,31,34,28,0.452,25.1,27.3,22.8,2.324,1.3,108,8.2,2.8,0.00262,0.00296,57.7,63.4,16,466,0,82.9,5.83,0.00,0.00
15min,AgWx,beryljct,423,21SEP2018:09:15:00,59.9,14.27,57.7,59.0,57.4,59.2,56.1,27,29,24,0.433,23.5,25.6,21.7,0.285,0.3,90,0.1,2.4,0.00283,0.00307,57.7,63.3,16,511,0,88.1,5.83,0.00,0.00
15min,AgWx,beryljct,423,21SEP2018:09:30:00,62.8,14.25,58.5,59.2,58.5,59.3,58.2,25,27,24,0.423,23.2,24.9,22.3,0.789,0.9,47,62,2.7,0.00318,0.00352,57.9,63.2,16,554,0,91.8,5.83,0.00,0.00
15min,AgWx,beryljct,423,21SEP2018:09:45:00,65.2,14.23,60.5,62.2,60.2,62.4,59.1,25,28,22,0.422,24.1,26.3,22.5,0.745,0.7,326,3.9,2.2,0.00347,0.00382,58.0,63.1,16,596,0,93.3,5.82,0.00,0.00
15min,AgWx,beryljct,423,21SEP2018:10:00:00,67.5,14.27,62.3,63.4,62.2,63.7,61.2,22,24,21,0.439,22.9,24.7,21.0,0.723,0.6,330,2.6,3.1,0.00376,0.00411,58.2,63.0,16,635,0,95.9,5.82,0.00,0.00
15min,AgWx,beryljct,423,21SEP2018:10:15:00,69.5,14.14,63.9,63.9,63.9,64.9,63.3,25,29,20,0.514,27.2,31.1,22.0,0.68,1.0,268,42,3.0,0.00410,0.00454,58.5,62.9,16,672,0,97.1,5.81,0.00,0.00
15min,AgWx,beryljct,423,21SEP2018:10:30:00,70.9,13.74,65.4,65.3,65.3,66.8,63.8,23,28,21,0.601,26.6,31.7,24.0,0,0.9,140,49,3.8,0.00434,0.00478,58.8,62.9,16,707,0,99.5,5.81,0.00,0.00
15min,AgWx,beryljct,423,21SEP2018:10:45:00,72.1,13.7,66.1,66.2,66.2,67.2,65.2,25,31,20,0.443,29.5,34.4,24.1,1.381,0.6,157,46,2.2,0.00454,0.00494,59.2,62.8,16,735,0,100.9,5.81,0.00,0.00
15min,AgWx,beryljct,423,21SEP2018:11:00:00,73.4,13.72,67.3,67.9,67.3,68.6,66.1,20,24,17,0.424,24.7,29.8,21.1,1.776,1.1,332,7.0,3.5,0.00478,0.00530,59.6,62.8,16,761,0,101.4,5.80,0.00,0.00
15min,AgWx,beryljct,423,21SEP2018:11:15:00,74.9,13.64,68.5,69.2,68.5,69.2,67.8,17,22,16,0.431,22.6,28.0,20.4,1.513,1.9,350,14,4.3,0.00507,0.00576,60.1,62.8,16,783,0,99.2,5.80,0.00,0.00
15min,AgWx,beryljct,423,21SEP2018:11:30:00,76.4,13.6,70.6,72.1,70.5,72.3,69.3,18,20,16,0.522,24.5,28.9,21.5,3.99,2.1,70,61,5.2,0.00530,0.00604,60.6,62.8,16,803,0,99.9,5.79,0.00,0.00
15min,AgWx,beryljct,423,21SEP2018:11:45:00,77.7,13.59,72.1,72.8,72.2,73.0,71.3,18,21,16,0.444,26.0,29.5,22.5,1.381,2.6,76,36,5.5,0.00554,0.00638,61.2,62.8,16,820,0,100.2,5.79,0.00,0.00
15min,AgWx,beryljct,423,21SEP2018:12:00:00,78.7,13.66,73.1,73.8,73.1,74.0,72.2,18,20,15,0.481,26.9,29.7,23.1,3.902,2.3,50,53,4.3,0.00558,0.00637,61.8,62.9,16,829,0,101.4,5.79,0.00,0.00
15min,AgWx,beryljct,423,21SEP2018:12:15:00,79.8,13.57,75.1,75.4,75.1,76.5,73.4,16,19,14,0.434,25.8,29.2,23.7,2.74,3.0,22,52,6.1,0.00580,0.00676,62.4,62.9,16,834,0,100.8,5.79,0.00,0.00
15min,AgWx,beryljct,423,21SEP2018:12:30:00,80.8,13.5,76.6,78.2,76.6,78.2,75.5,14,15,12,0.417,23.6,26.1,21.2,3.529,2.5,102,49,4.8,0.00580,0.00668,63.1,63.0,16,837,0,101.7,5.79,0.00,0.00
15min,AgWx,beryljct,423,21SEP2018:12:45:00,81.9,13.46,77.6,77.7,77.9,79.1,76.9,13,15,11,0.372,22.9,25.9,20.1,1.184,3.2,75,32,6.1,0.00593,0.00699,63.7,63.1,16,830,0,101.2,5.79,0.00,0.00
15min,AgWx,beryljct,423,21SEP2018:13:00:00,82.9,13.45,78.6,79.3,78.6,80.1,77.7,12,14,11,0.457,22.3,26.4,19.0,5.765,3.5,99,19,5.9,0.00598,0.00709,64.4,63.2,16,826,0,101.8,5.79,0.00,0.00
15min,AgWx,beryljct,423,21SEP2018:13:15:00,83.9,13.45,79.1,79.3,79.3,80.0,78.8,12,14,11,0.432,21.5,26.4,19.1,9.08,5.1,62,68,11.2,0.00621,0.00764,65.1,63.4,16,815,0,98.0,5.79,0.00,0.00
15min,AgWx,beryljct,423,21SEP2018:13:30:00,84.5,13.41,79.5,80.2,79.7,80.5,78.9,13,16,11,0.444,23.5,29.4,19.7,3.88,4.2,344,12,13.6,0.00599,0.00726,65.9,63.5,16,801,0,96.5,5.79,0.00,0.00
15min,AgWx,beryljct,423,21SEP2018:13:45:00,85.7,13.41,80.2,79.9,80.4,81.5,79.8,12,15,10,0.523,22.4,28.2,19.6,4.845,4.6,12,36,8.3,0.00599,0.00734,66.6,63.7,16,787,0,97.5,5.79,0.00,0.00
15min,AgWx,beryljct,423,21SEP2018:14:00:00,86.2,13.42,79.1,79.2,79.4,80.0,78.8,15,20,11,0.521,27.0,35.0,20.9,6.642,6.9,315,16,13.7,0.00619,0.00791,67.2,63.8,16,768,0,93.0,5.79,0.00,0.00
15min,AgWx,beryljct,423,21SEP2018:14:15:00,86.3,13.41,79.7,80.7,79.7,80.7,78.8,18,26,9.7,0.454,31.4,41.5,18.0,8.75,4.4,256,44,9.8,0.00560,0.00682,67.8,64.0,16,743,0,94.6,5.79,0.00,0.00
15min,AgWx,beryljct,423,21SEP2018:14:30:00,86.2,13.39,80.5,81.6,80.6,83.0,77.8,15,24,9.3,0.458,27.4,38.8,18.7,4.472,9.6,200,54,29.4,0.00636,0.00854,68.2,64.2,16,717,0,90.3,5.79,0.00,0.00
15min,AgWx,beryljct,423,21SEP2018:14:45:00,85.6,13.4,79.6,80.4,79.8,81.6,78.6,18,24,11,0.544,32.8,39.5,20.3,4.099,7.2,220,22,15.0,0.00552,0.00719,68.5,64.4,16,663,0,89.6,5.79,0.00,0.00
15min,AgWx,beryljct,423,21SEP2018:15:00:00,85.3,13.4,80.6,78.5,80.9,82.8,78.5,15,25,10,0.753,28.7,40.9,20.8,9.01,10.5,192,25,18.0,0.00600,0.00828,68.7,64.6,16,643,0,87.6,5.80,0.00,0.00
15min,AgWx,beryljct,423,21SEP2018:15:15:00,84.7,13.38,80.2,82.6,79.9,82.6,78.4,15,23,10,0.415,27.8,38.5,20.1,12.14,8.5,193,28,17.2,0.00545,0.00738,68.9,64.8,16,616,0,86.5,5.80,0.00,0.00
15min,AgWx,beryljct,423,21SEP2018:15:30:00,84.7,13.38,79.6,79.4,80.1,82.9,79.0,16,20,11,0.562,29.7,35.7,22.3,7.914,9.1,205,15,14.5,0.00522,0.00722,69.0,65.0,16,564,0,85.4,5.80,0.00,0.00
15min,AgWx,beryljct,423,21SEP2018:15:45:00,84.3,13.41,80.2,81.0,80.2,82.0,79.2,14,19,9.8,0.442,26.8,33.8,19.4,8.88,9.6,192,23,14.1,0.00513,0.00723,69.1,65.2,16,534,0,84.2,5.80,0.00,0.00
15min,AgWx,beryljct,423,21SEP2018:16:00:00,84.1,13.38,80.0,80.9,80.1,81.7,78.2,15,21,10,0.496,27.5,35.3,20.0,5.941,10.3,190,16,17.1,0.00496,0.00715,69.3,65.4,16,489,0,83.0,5.80,0.00,0.00
15min,AgWx,beryljct,423,21SEP2018:16:15:00,83.8,13.4,79.0,79.2,79.2,80.8,77.8,18,26,12,0.602,32.1,40.6,22.7,10.15,7.4,206,19,16.5,0.00400,0.00558,69.5,65.6,16,441,0,81.9,5.80,0.00,0.00
15min,AgWx,beryljct,423,21SEP2018:16:30:00,83.1,13.41,77.9,78.1,78.2,79.2,77.4,18,24,13,0.581,31.1,37.9,24.1,4.669,8.8,211,13,14.6,0.00391,0.00570,69.6,65.7,16,393,0,80.0,5.80,0.00,0.00
15min,AgWx,beryljct,423,21SEP2018:16:45:00,82.5,13.43,78.3,77.9,78.4,80.3,77.3,18,24,13,0.537,31.5,37.8,24.6,11.79,8.1,204,20,12.4,0.00344,0.00509,69.8,65.9,16,343,0,80.1,5.80,0.00,0.00
15min,AgWx,beryljct,423,21SEP2018:17:00:00,81.8,13.48,78.7,79.5,78.6,79.9,77.7,16,21,12,0.492,28.3,34.9,22.8,8.57,9.1,186,14,13.5,0.00337,0.00523,70.0,66.0,16,293,0,79.5,5.80,0.00,0.00
15min,AgWx,beryljct,423,21SEP2018:17:15:00,81.4,13.46,78.3,77.5,78.6,79.5,77.5,16,19,13,0.620,28.4,33.2,23.8,8.35,8.9,184,17,12.4,0.00300,0.00480,70.2,66.2,16,244,0,79.5,5.80,0.00,0.00
15min,AgWx,beryljct,423,21SEP2018:17:30:00,80.6,13.5,77.9,77.9,77.9,79.3,76.5,16,20,13,0.512,28.3,33.5,23.7,10.41,9.6,187,11,13.8,0.00279,0.00464,70.3,66.3,16,196,0,78.2,5.80,0.00,0.00
15min,AgWx,beryljct,423,21SEP2018:17:45:00,79.6,13.52,76.1,76.2,76.4,77.9,75.8,18,21,16,0.511,29.6,33.0,27.1,8.64,8.6,193,9.1,11.0,0.00147,0.00194,70.4,66.5,16,149,0,76.6,5.80,0.00,0.00
15min,AgWx,beryljct,423,21SEP2018:18:00:00,78.3,13.43,76.0,75.4,76.2,77.3,75.4,17,18,14,0.547,27.9,29.7,24.2,7.936,9.3,190,5.8,13.5,0.00143,0.00188,70.5,66.6,16,105,0,74.9,5.81,0.00,0.00
15min,AgWx,beryljct,423,21SEP2018:18:15:00,76.8,13.29,74.2,74.1,74.4,75.4,73.6,19,20,17,0.496,29.2,30.8,26.9,7.98,8.5,190,6.2,11.4,0.00119,0.00159,70.5,66.8,16,64,0,72.2,5.81,0.00,0.00
15min,AgWx,beryljct,423,21SEP2018:18:30:00,75.0,13.22,72.2,71.0,72.6,74.3,71.0,19,21,17,0.529,28.1,29.2,26.7,6.84,7.5,189,4.8,9.9,0.00093,0.00128,70.5,66.9,16,14,0,70.0,5.81,0.00,0.00
15min,AgWx,beryljct,423,21SEP2018:18:45:00,72.5,13.18,69.2,68.6,69.5,70.8,68.6,21,22,20,0.530,28.3,29.5,27.0,5.722,5.9,193,3.7,7.1,0.00065,0.00093,70.5,67.0,16,4,0,66.2,5.81,0.00,0.00
15min,AgWx,beryljct,423,21SEP2018:19:00:00,69.9,13.16,66.9,66.5,67.1,68.5,65.7,24,27,22,0.532,28.8,30.6,27.6,5.415,5.5,189,4.2,6.4,0.00054,0.00078,70.4,67.1,16,0,0,64.0,5.81,0.00,0.00
15min,AgWx,beryljct,423,21SEP2018:19:15:00,67.7,13.14,66.3,67.8,66.1,67.8,64.7,24,28,20,0.458,28.6,30.8,24.8,5.437,5.4,188,6.5,6.6,0.00052,0.00075,70.2,67.2,16,0,0,62.8,5.81,0.00,0.00
15min,AgWx,beryljct,423,21SEP2018:19:30:00,66.2,13.13,65.2,64.6,65.5,67.8,64.4,25,27,20,0.542,28.4,29.9,25.0,6.05,6.0,191,5.8,6.9,0.00056,0.00080,70.1,67.3,16,0,0,62.6,5.81,0.00,0.00
15min,AgWx,beryljct,423,21SEP2018:19:45:00,65.0,13.12,65.4,65.4,65.2,66.2,64.4,25,28,22,0.470,28.3,30.7,25.2,5.327,5.7,185,12,7.1,0.00053,0.00076,69.8,67.4,16,0,0,62.1,5.82,0.00,0.00
15min,AgWx,beryljct,423,21SEP2018:20:00:00,64.2,13.12,63.5,62.8,63.7,65.6,62.4,25,30,22,0.564,26.9,30.4,24.9,6.292,5.7,186,9.2,6.8,0.00052,0.00074,69.6,67.5,16,0,0,60.9,5.82,0.00,0.00
15min,AgWx,beryljct,423,21SEP2018:20:15:00,63.6,13.11,65.7,66.4,65.1,67.2,62.9,26,29,22,0.547,29.2,31.2,27.4,7.278,6.0,186,10,7.3,0.00055,0.00078,69.4,67.5,16,0,0,61.9,5.82,0.00,0.00
15min,AgWx,beryljct,423,21SEP2018:20:30:00,63.6,13.08,65.4,64.7,65.5,66.4,64.7,27,30,25,0.626,31.1,32.6,29.5,6.314,6.4,199,6.6,7.3,0.00058,0.00081,69.1,67.6,16,0,0,62.5,5.82,0.00,0.00
15min,AgWx,beryljct,423,21SEP2018:20:45:00,63.5,13.1,64.4,63.3,64.4,65.5,63.2,31,33,29,0.646,33.0,34.0,31.9,6.84,5.7,211,5.4,7.1,0.00047,0.00068,68.9,67.6,16,0,0,61.3,5.82,0.00,0.00
15min,AgWx,beryljct,423,21SEP2018:21:00:00,63.2,13.08,64.0,64.0,63.8,64.4,62.7,30,32,27,0.552,32.0,33.2,29.5,5.042,5.2,193,22,7.2,0.00042,0.00061,68.7,67.7,16,0,0,60.8,5.82,0.00,0.00
15min,AgWx,beryljct,423,21SEP2018:21:15:00,62.5,13.07,61.4,57.2,62.0,64.7,57.2,30,36,26,0.564,30.4,32.7,29.3,10.15,6.5,155,8.7,10.2,0.00052,0.00072,68.4,67.7,16,0,0,59.5,5.82,0.00,0.00
15min,AgWx,beryljct,423,21SEP2018:21:30:00,60.8,13.07,56.1,57.2,56.1,57.2,55.3,38,40,35,0.554,30.6,31.5,29.5,5.283,6.7,150,8.9,9.7,0.00041,0.00055,68.2,67.7,16,0,0,54.3,5.82,0.00,0.00
15min,AgWx,beryljct,423,21SEP2018:21:45:00,59.6,13.04,60.0,61.2,59.4,61.2,57.2,31,35,30,0.548,28.8,29.6,28.0,6.072,5.5,173,5.0,6.2,0.00040,0.00056,67.9,67.7,16,0,0,56.4,5.83,0.00,0.00
15min,AgWx,beryljct,423,21SEP2018:22:00:00,59.1,13.05,58.4,55.2,58.9,63.3,55.2,34,40,28,0.581,30.6,32.0,29.3,7.717,7.0,154,12,9.1,0.00049,0.00066,67.7,67.6,16,0,0,57.1,5.83,0.00,0.00
15min,AgWx,beryljct,423,21SEP2018:22:15:00,57.8,13.04,54.6,55.3,54.4,57.3,52.8,41,45,35,0.572,31.1,32.2,29.9,9.25,8.0,150,8.5,9.3,0.00043,0.00056,67.5,67.6,16,0,0,53.0,5.83,0.00,0.00
15min,AgWx,beryljct,423,21SEP2018:22:30:00,56.8,13.03,54.5,53.5,54.5,56.3,52.7,42,48,38,0.601,31.9,33.5,30.4,2.762,4.5,260,45,9.1,0.00021,0.00031,67.3,67.6,16,0,0,52.5,5.83,0.00,0.00
15min,AgWx,beryljct,423,21SEP2018:22:45:00,55.6,13.02,54.1,52.3,54.0,55.4,52.3,41,44,38,0.572,30.7,31.9,30.0,4.604,0.8,332,31,4.6,-0.00024,-0.00034,67.0,67.2,16,0,0,50.0,5.83,0.00,0.00
15min,AgWx,beryljct,423,21SEP2018:23:00:00,54.3,13,49.9,50.2,50.0,52.1,48.8,47,51,43,0.531,30.4,31.4,28.6,1.622,2.5,303,2.1,4.6,-0.00001,0.00002,66.8,67.5,16,0,0,47.7,5.83,0.00,0.00
15min,AgWx,beryljct,423,21SEP2018:23:15:00,53.0,13,51.4,53.4,50.8,53.4,47.5,47,56,42,0.592,31.4,33.2,28.5,4.428,2.8,285,12,4.8,0.00001,0.00005,66.5,67.5,16,0,0,47.8,5.83,0.00,0.00
15min,AgWx,beryljct,423,21SEP2018:23:30:00,52.7,12.99,55.4,52.0,55.3,58.4,51.9,39,48,33,0.623,30.8,33.2,28.9,1.776,3.4,272,10,5.8,0.00013,0.00022,66.3,67.0,16,0,0,52.9,5.83,0.00,0.00
15min,AgWx,bigpiney,439,21SEP2018:00:00:00,29.7,12.71,24.4,23.7,24.0,25.3,22.4,53,57,49,0.227,9.2,10.1,8.5,0,3.1,260,40,5.4,0.00000,0.00002,47.2,48.6,30,0,0,0.0,.,0.00,0.00
15min,AgWx,bigpiney,439,21SEP2018:00:15:00,29.2,12.7,25.3,24.4,24.8,26.1,23.6,52,57,47,0.254,9.5,11.3,8.7,5.13,4.0,218,22,6.6,0.00004,0.00006,47.0,48.5,30,0,0,0.0,.,0.00,0.00
15min,AgWx,bigpiney,439,21SEP2018:00:30:00,28.7,12.69,23.8,21.7,23.7,24.8,21.7,59,64,57,0.257,11.5,12.0,11.0,2.784,4.2,214,9.5,5.5,0.00002,0.00004,46.9,48.6,30,0,0,0.0,.,0.00,0.00
15min,AgWx,bigpiney,439,21SEP2018:00:45:00,28.2,12.67,22.1,21.9,21.8,22.7,20.9,62,65,58,0.232,10.6,11.8,9.2,2.214,3.2,205,19,4.5,-0.00002,-0.00001,46.8,48.5,30,0,0,0.0,.,0.00,0.00
15min,AgWx,bigpiney,439,21SEP2018:01:00:00,27.6,12.67,21.2,23.1,20.7,23.1,19.0,59,63,52,0.218,8.6,9.3,7.4,4.165,3.5,241,8.4,5.0,0.00000,0.00002,46.7,48.5,30,0,0,0.0,.,0.00,0.00
15min,AgWx,bigpiney,439,21SEP2018:01:15:00,26.7,12.66,22.7,19.6,22.6,24.6,19.6,55,63,49,0.228,8.8,10.3,7.5,5.765,4.4,220,9.6,5.8,0.00004,0.00006,46.6,48.5,30,0,0,0.0,.,0.00,0.00
15min,AgWx,bigpiney,439,21SEP2018:01:30:00,25.9,12.65,20.1,19.5,19.8,21.5,18.6,63,67,57,0.244,9.0,10.3,7.9,6.16,6.2,211,2.7,7.8,0.00005,0.00007,46.4,48.4,30,0,0,0.0,.,0.00,0.00
15min,AgWx,bigpiney,439,21SEP2018:01:45:00,25.1,12.63,19.8,19.3,19.5,19.9,18.8,67,70,63,0.229,10.4,11.3,8.9,3.113,4.6,221,6.3,6.2,0.00001,0.00002,46.3,48.5,30,0,0,0.0,.,0.00,0.00
15min,AgWx,bigpiney,439,21SEP2018:02:00:00,24.6,12.61,20.7,23.4,20.0,23.4,17.4,62,69,51,0.218,8.9,9.9,7.9,1.535,1.6,230,11,3.6,-0.00007,-0.00009,46.2,48.4,30,0,0,0.0,.,0.00,0.00
15min,AgWx,bigpiney,439,21SEP2018:02:15:00,24.4,12.62,24.3,24.4,24.0,25.4,22.3,48,52,45,0.213,7.3,7.9,6.2,0,1.8,221,13,3.4,-0.00005,-0.00005,46.0,48.4,30,0,0,0.0,.,0.00,0.00
15min,AgWx,bigpiney,439,21SEP2018:02:30:00,24.3,12.6,26.1,25.2,25.5,26.8,24.2,44,47,41,0.203,6.4,7.2,5.0,1.491,1.7,308,20,3.0,-0.00006,-0.00007,45.9,48.4,30,0,0,0.0,.,0.00,0.00
15min,AgWx,bigpiney,439,21SEP2018:02:45:00,24.0,12.59,23.4,25.3,23.2,25.3,20.3,49,56,44,0.205,7.0,7.8,6.1,2.039,2.0,227,14,4.0,-0.00004,-0.00004,45.8,48.4,30,0,0,0.0,.,0.00,0.00
15min,AgWx,bigpiney,439,21SEP2018:03:00:00,23.5,12.58,26.3,26.6,25.7,27.4,23.1,42,50,37,0.184,5.9,7.8,4.2,5.064,4.8,208,7.9,5.7,0.00009,0.00013,45.7,48.3,30,0,0,0.0,.,0.00,0.00
15min,AgWx,bigpiney,439,21SEP2018:03:15:00,23.3,12.56,22.5,18.5,23.1,26.3,17.6,48,62,38,0.208,5.8,7.7,4.2,5.59,4.9,209,7.7,6.5,0.00008,0.00011,45.6,48.3,30,0,0,0.0,.,0.00,0.00
15min,AgWx,bigpiney,439,21SEP2018:03:30:00,23.0,12.57,20.2,20.9,19.6,22.6,16.5,57,66,48,0.186,6.6,7.9,4.4,2.148,2.4,257,24,5.4,-0.00003,-0.00003,45.4,48.2,30,0,0,0.0,.,0.00,0.00
15min,AgWx,bigpiney,439,21SEP2018:03:45:00,22.6,12.55,22.3,22.6,21.7,22.7,20.0,50,53,47,0.196,5.8,6.4,4.2,2.258,0.8,247,21,2.3,-0.00012,-0.00017,45.3,48.2,30,0,0,0.0,.,0.00,0.00
15min,AgWx,bigpiney,439,21SEP2018:04:00:00,22.1,12.53,23.3,23.4,22.9,23.4,22.3,47,48,46,0.198,5.5,5.8,5.0,1.578,1.0,193,17,2.5,-0.00011,-0.00014,45.2,48.2,30,0,0,0.0,.,0.00,0.00
15min,AgWx,bigpiney,439,21SEP2018:04:15:00,21.7,12.52,20.4,14.5,21.0,24.4,14.5,53,67,42,0.197,6.2,7.2,4.8,2.368,3.1,174,18,4.9,0.00000,0.00002,45.0,48.2,30,0,0,0.0,.,0.00,0.00
15min,AgWx,bigpiney,439,21SEP2018:04:30:00,21.2,12.5,22.1,24.5,20.8,24.6,14.4,53,69,42,0.192,5.9,7.4,4.7,0.088,1.6,203,10,3.3,-0.00006,-0.00007,44.9,48.2,30,0,0,0.0,.,0.00,0.00
15min,AgWx,bigpiney,439,21SEP2018:04:45:00,20.9,12.48,23.4,21.5,23.4,25.4,21.5,46,50,42,0.197,5.5,6.6,4.0,2.894,1.2,239,10,3.0,-0.00010,-0.00013,44.8,48.1,30,0,0,0.0,.,0.00,0.00
15min,AgWx,bigpiney,439,21SEP2018:05:00:00,20.6,12.47,20.3,18.6,20.3,24.5,16.5,53,63,45,0.198,5.9,6.7,4.7,2.477,4.3,221,14,5.5,0.00004,0.00006,44.7,48.1,30,0,0,0.0,.,0.00,0.00
15min,AgWx,bigpiney,439,21SEP2018:05:15:00,20.2,12.45,18.1,17.0,17.9,18.8,17.0,57,60,55,0.190,5.3,6.4,4.7,3.179,3.2,232,11,4.5,-0.00000,0.00001,44.6,48.0,30,0,0,0.0,.,0.00,0.00
15min,AgWx,bigpiney,439,21SEP2018:05:30:00,19.9,12.43,23.0,18.8,22.3,24.7,16.9,47,59,43,0.174,5.1,6.8,2.8,2.784,1.5,253,8.9,3.7,-0.00007,-0.00008,44.4,48.0,30,0,0,0.0,.,0.00,0.00
15min,AgWx,bigpiney,439,21SEP2018:05:45:00,19.5,12.41,24.7,25.8,23.4,25.8,18.4,47,54,43,0.201,5.9,6.5,3.2,1.403,1.8,278,30,2.9,-0.00005,-0.00006,44.3,48.0,30,0,0,0.0,.,0.00,0.00
15min,AgWx,bigpiney,439,21SEP2018:06:00:00,19.5,12.41,21.3,21.6,21.4,26.0,19.4,50,54,42,0.200,5.4,6.2,3.7,1.929,0.6,339,14,1.9,-0.00014,-0.00019,44.2,47.9,30,1,0,0.0,.,0.00,0.00
15min,AgWx,bigpiney,439,21SEP2018:06:15:00,19.5,12.41,21.0,20.4,20.6,22.1,20.1,51,53,49,0.192,5.3,6.0,4.9,2.017,1.9,335,8.6,2.5,-0.00004,-0.00004,44.1,47.9,30,6,0,0.0,.,0.00,0.00
15min,AgWx,bigpiney,439,21SEP2018:06:30:00,19.7,12.45,20.8,19.6,20.4,21.1,19.4,52,54,51,0.196,5.5,6.1,4.9,2.148,2.6,273,25,3.7,-0.00007,0.00003,44.0,47.9,30,34,0,0.0,.,0.00,0.00
15min,AgWx,bigpiney,439,21SEP2018:06:45:00,19.9,12.52,21.6,22.2,21.0,22.6,18.8,53,58,49,0.213,6.4,7.4,5.4,1.688,1.9,249,15,2.9,0.00002,0.00010,43.8,47.8,30,75,0,0.0,.,0.00,0.00
15min,AgWx,bigpiney,439,21SEP2018:07:00:00,20.6,12.72,25.1,25.8,24.3,25.8,22.1,50,57,46,0.229,8.5,10.4,6.8,1.666,2.3,316,16,3.0,0.00018,0.00030,43.7,47.7,30,116,0,0.0,.,0.00,0.00
15min,AgWx,bigpiney,439,21SEP2018:07:15:00,22.1,13.33,27.6,28.4,26.9,28.4,25.8,50,54,46,0.246,10.9,12.5,8.7,0.504,0.7,345,5.7,2.2,0.00027,0.00033,43.6,47.8,30,160,0,0.0,.,0.00,0.00
15min,AgWx,bigpiney,439,21SEP2018:07:30:00,24.6,13.91,30.5,30.9,29.9,31.1,28.4,43,48,39,0.226,10.2,11.7,8.5,0,0.1,239,11,0.9,0.00043,0.00046,43.5,47.7,30,206,0,0.0,.,0.00,0.00
15min,AgWx,bigpiney,439,21SEP2018:07:45:00,28.0,14.91,32.0,32.3,31.5,32.3,30.8,42,45,39,0.274,11.1,13.1,8.8,0.899,0.2,117,23,1.2,0.00067,0.00072,43.4,47.7,30,255,0,0.0,.,0.00,0.00
15min,AgWx,bigpiney,439,21SEP2018:08:00:00,31.7,14.83,33.9,34.2,33.4,34.7,32.3,42,45,39,0.265,12.9,14.4,12.1,0,0.3,176,37,1.3,0.00093,0.00102,43.3,47.6,30,304,0,0.0,.,0.00,0.00
15min,AgWx,bigpiney,439,21SEP2018:08:15:00,35.2,14.84,36.3,37.7,35.8,37.7,34.3,40,41,39,0.304,13.8,15.7,12.8,0.943,0.8,159,29,2.1,0.00124,0.00138,43.2,47.7,30,353,0,0.0,.,0.00,0.00
15min,AgWx,bigpiney,439,21SEP2018:08:30:00,38.6,14.67,39.1,40.3,38.6,40.3,37.3,37,39,35,0.299,14.4,15.6,13.2,1.381,0.6,196,24,2.1,0.00152,0.00167,43.1,47.6,30,401,0,0.0,.,0.00,0.00